Location: La Coruña
(43.3623°N, 8.4115°W)
Time: 16:36:38
(UTC+01:00)

STARLINK-1115 - Pass Details

Date: 18 January 2020
Orbit: 348 x 350 km, 53.0° (Epoch: 18 February)

Event Time Altitude Azimuth Distance (km) Brightness Sun altitude
Rises 20:13:35 0° 261° (W) 2,161 8.3 -19.2°
Reaches altitude 10° 20:15:45 10° 274° (W) 1,321 6.7 -19.6°
Enters shadow 20:18:20 28° 335° (NNW) 711 4.3 -20.0°
